NI4CE-10 Weather Reports


time (UTC)temp
F
wind
direction
speed
knots
gust
knots
rain 1hr
in
rain 24hr
in
rain mn
in
humidity
%
barometer
mb
20260504050556 67 14 0.0 0.0 0.00 0.60 0.00 100 1018.4
20260504050008 68 22 0.0 0.0 0.00 0.60 0.60 100 1018.8
20260504045946 68 14 0.0 0.0 0.00 0.60 0.60 100 1018.6
20260504045556 68 14 0.0 0.0 0.00 0.60 0.60 100 1018.6
20260504045056 68 14 0.0 1.7 0.00 0.60 0.60 100 1018.8
20260504044556 68 22 0.0 0.0 0.00 0.60 0.60 100 1018.8
20260504044056 68 22 0.0 0.0 0.00 0.60 0.60 100 1018.8
20260504044048 69 16 0.0 0.0 0.00 0.60 0.60 100 1019.0
20260504043952 69 22 0.0 4.3 0.00 0.60 0.60 100 1018.9
20260504043556 69 22 0.0 4.3 0.00 0.60 0.60 100 1018.9
20260504043057 69 28 1.7 4.3 0.00 0.60 0.60 100 1018.9
20260504042638 69 16 0.0 3.5 0.00 0.60 0.60 100 1019.0
20260504042556 69 16 0.0 0.0 0.00 0.60 0.60 100 1019.0
20260504042337 69 30 0.9 2.6 0.00 0.60 0.60 100 1018.9
20260504042056 69 16 0.0 3.5 0.00 0.60 0.60 100 1019.0
20260504041556 69 30 0.9 2.6 0.00 0.60 0.60 100 1018.9
20260504041224 69 35 0.0 3.5 0.00 0.60 0.60 100 1018.9
20260504041056 69 35 0.0 3.5 0.00 0.60 0.60 100 1018.9
20260504040845 69 37 0.9 4.3 0.00 0.60 0.60 100 1019.1
20260504040556 69 37 0.9 4.3 0.00 0.60 0.60 100 1019.1
20260504040058 68 42 0.0 0.0 0.00 0.60 0.60 100 1019.3
20260504040056 70 45 1.7 5.2 0.00 0.60 0.60 100 1019.1
20260504035944 68 42 0.0 0.0 0.00 0.60 0.60 100 1019.3
20260504035556 69 61 2.6 3.5 0.00 0.60 0.60 100 1019.2
20260504035056 68 42 0.0 0.0 0.00 0.60 0.60 100 1019.3
20260504034813 69 42 0.0 0.0 0.00 0.60 0.60 100 1019.2
20260504034556 69 42 0.0 0.0 0.00 0.60 0.60 100 1019.2
20260504034147 69 42 0.0 1.7 0.00 0.60 0.60 100 1019.2
20260504034056 69 42 0.0 0.0 0.00 0.60 0.60 100 1019.2
20260504033837 69 67 0.9 1.7 0.00 0.60 0.60 100 1019.3
20260504033556 69 42 0.0 1.7 0.00 0.60 0.60 100 1019.2
20260504033056 69 67 0.9 1.7 0.00 0.60 0.60 100 1019.3
20260504032556 69 53 1.7 2.6 0.00 0.60 0.60 100 1019.2
20260504032056 69 82 0.9 3.5 0.00 0.60 0.60 100 1019.2
20260504032022 70 63 0.9 4.3 0.00 0.60 0.60 100 1019.1
20260504031557 70 63 0.9 4.3 0.00 0.60 0.60 100 1019.1
20260504031057 70 92 0.0 3.5 0.00 0.60 0.60 100 1019.2
20260504030839 70 97 0.9 2.6 0.00 0.60 0.60 100 1019.3
20260504030557 70 81 0.9 4.3 0.00 0.60 0.60 100 1019.3
20260504030057 70 97 0.9 2.6 0.00 0.60 0.60 100 1019.3
20260504025731 69 52 0.0 4.3 0.00 0.60 0.60 100 1019.3
20260504025557 70 66 1.7 4.3 0.00 0.60 0.60 100 1019.4
20260504025057 69 52 0.0 4.3 0.00 0.60 0.60 100 1019.3
20260504024557 69 112 2.6 3.5 0.00 0.60 0.60 100 1019.3
20260504024139 69 90 1.7 4.3 0.00 0.60 0.60 100 1019.1
20260504024057 69 115 1.7 2.6 0.00 0.60 0.60 100 1019.1
20260504023557 69 90 1.7 4.3 0.00 0.60 0.60 100 1019.1
20260504023136 69 80 0.0 2.6 0.00 0.60 0.60 100 1019.1
20260504023057 69 105 1.7 4.3 0.00 0.60 0.60 100 1019.0
20260504022819 70 146 0.0 3.5 0.00 0.60 0.60 100 1019.0
20260504022557 69 80 0.0 2.6 0.00 0.60 0.60 100 1019.1
20260504022107 69 142 1.7 2.6 0.00 0.60 0.60 100 1018.9
20260504022057 70 146 0.0 3.5 0.00 0.60 0.60 100 1019.0
20260504021557 69 142 1.7 2.6 0.00 0.60 0.60 100 1018.9
20260504021225 69 120 1.7 3.5 0.00 0.60 0.60 100 1018.9
20260504021057 69 120 1.7 3.5 0.00 0.60 0.60 100 1018.9
20260504021012 69 63 0.0 0.0 0.00 0.60 0.60 100 1018.8
20260504020639 69 63 0.0 0.0 0.00 0.60 0.60 100 1018.8
20260504020557 69 63 0.0 0.0 0.00 0.60 0.60 100 1018.8
20260504020304 69 63 0.0 0.0 0.00 0.60 0.60 100 1018.8
20260504020057 69 63 0.0 0.0 0.00 0.60 0.60 100 1018.8
20260504015727 69 63 0.0 0.0 0.00 0.60 0.60 100 1018.7
20260504015557 69 63 0.0 0.0 0.00 0.60 0.60 100 1018.8
20260504015057 69 63 0.0 0.0 0.00 0.60 0.60 100 1018.7
20260504014557 69 63 0.0 0.0 0.00 0.60 0.60 100 1018.7
20260504014345 70 87 0.0 0.9 0.00 0.60 0.60 100 1018.8
20260504014057 70 63 0.0 0.0 0.00 0.60 0.60 100 1018.7
20260504013829 70 87 0.0 0.9 0.00 0.60 0.60 100 1018.8
20260504013557 70 87 0.0 0.9 0.00 0.60 0.60 100 1018.8
20260504013422 70 139 0.9 0.9 0.00 0.60 0.60 100 1018.6
20260504013132 70 139 0.9 0.9 0.00 0.60 0.60 100 1018.6
20260504013057 70 139 0.9 0.9 0.00 0.60 0.60 100 1018.6
20260504012557 70 88 0.0 1.7 0.00 0.60 0.60 100 1018.8
20260504012148 71 140 0.9 2.6 0.00 0.60 0.60 100 1018.6
20260504012057 70 147 1.7 3.5 0.00 0.60 0.60 100 1018.6
20260504011557 71 140 0.9 2.6 0.00 0.60 0.60 100 1018.6
20260504011149 71 88 0.0 2.6 0.00 0.60 0.60 100 1018.5
20260504011057 71 154 1.7 2.6 0.00 0.60 0.60 100 1018.5
20260504010734 71 98 1.7 3.5 0.00 0.60 0.60 100 1018.3
20260504010557 71 88 0.0 2.6 0.00 0.60 0.60 100 1018.5
20260504010057 71 98 1.7 3.5 0.00 0.60 0.60 100 1018.3
20260504005557 71 74 1.7 2.6 0.00 0.60 0.60 100 1018.3
20260504005233 71 23 0.0 0.0 0.00 0.60 0.60 100 1018.3
20260504005059 72 23 0.0 0.0 0.00 0.61 0.60 100 1017.9
20260504005057 71 23 0.0 0.0 0.00 0.60 0.60 100 1018.3
20260504004557 72 23 0.0 0.0 0.00 0.60 0.60 100 1018.2
20260504004057 72 23 0.0 0.0 0.00 0.60 0.60 100 1018.1
20260504003557 72 23 0.0 0.0 0.00 0.60 0.60 100 1018.1
20260504003057 72 23 0.0 0.0 0.00 0.60 0.60 100 1018.0
20260504002557 72 23 0.0 0.0 0.00 0.61 0.60 100 1017.9
20260504002439 73 19 0.9 1.7 0.00 0.61 0.60 100 1017.8
20260504002057 72 23 0.0 0.0 0.00 0.61 0.60 100 1017.8
20260504001557 72 23 0.0 1.7 0.00 0.61 0.60 100 1017.8
20260504001340 72 21 0.0 1.7 0.00 0.61 0.60 100 1017.7
20260504001057 73 19 0.9 1.7 0.00 0.61 0.60 100 1017.8
20260504000557 72 21 0.0 1.7 0.00 0.61 0.60 100 1017.7
20260504000147 73 167 0.9 3.5 0.00 0.61 0.60 100 1017.6
20260504000057 72 78 0.0 1.7 0.00 0.61 0.60 100 1017.6
20260503235557 73 167 0.9 3.5 0.00 0.61 0.60 100 1017.6
20260503235057 73 57 1.7 3.5 0.00 0.61 0.60 100 1017.5
20260503234557 73 132 1.7 3.5 0.00 0.61 0.60 100 1017.5
20260503234505 73 149 0.0 2.6 0.00 0.61 0.60 100 1017.5
20260503234132 74 113 1.7 4.3 0.00 0.61 0.60 100 1017.4
20260503234057 73 149 0.0 2.6 0.00 0.61 0.60 100 1017.5
20260503234014 74 113 1.7 4.3 0.00 0.61 0.60 100 1017.4
20260503233607 74 74 0.0 3.5 0.00 0.61 0.60 100 1017.4
20260503233557 74 113 1.7 4.3 0.00 0.61 0.60 100 1017.4
20260503233358 74 56 0.0 3.5 0.00 0.62 0.60 100 1017.5
20260503233057 74 74 0.0 3.5 0.00 0.61 0.60 100 1017.4
20260503232557 74 56 0.0 3.5 0.00 0.62 0.60 100 1017.5
20260503232526 74 88 2.6 3.5 0.00 0.62 0.60 100 1017.5
20260503232439 74 88 2.6 3.5 0.00 0.62 0.60 100 1017.5
20260503232058 74 88 2.6 3.5 0.00 0.62 0.60 100 1017.5
20260503232014 75 116 3.5 5.2 0.00 0.62 0.60 100 1017.3
20260503231558 75 97 0.9 4.3 0.00 0.62 0.60 100 1017.4
20260503231418 74 115 1.7 4.3 0.00 0.62 0.60 100 1017.3
20260503231058 74 115 1.7 4.3 0.00 0.62 0.60 100 1017.3
20260503230730 75 98 2.6 4.3 0.00 0.62 0.60 100 1017.3
20260503230558 75 116 3.5 5.2 0.00 0.62 0.60 100 1017.3
20260503230143 75 116 2.6 6.1 0.00 0.62 0.60 100 1017.3
20260503230112 75 116 2.6 6.1 0.00 0.62 0.60 100 1017.3
20260503230058 75 98 2.6 4.3 0.00 0.62 0.60 100 1017.3
20260503225558 75 116 2.6 6.1 0.00 0.62 0.60 100 1017.3
20260503225058 75 112 3.5 5.2 0.00 0.62 0.60 100 1017.3
20260503224558 75 99 2.6 5.2 0.00 0.62 0.60 100 1017.2
20260503224147 75 67 3.5 4.3 0.00 0.62 0.60 100 1017.3
20260503224058 75 126 2.6 4.3 0.00 0.62 0.60 100 1017.2
20260503223802 75 67 3.5 4.3 0.00 0.62 0.60 100 1017.3
20260503223558 75 67 3.5 4.3 0.00 0.62 0.60 100 1017.3
20260503223418 75 80 1.7 5.2 0.00 0.62 0.60 100 1017.3
20260503223058 75 80 1.7 5.2 0.00 0.62 0.60 100 1017.3
20260503222730 75 95 5.2 7.0 0.00 0.64 0.60 100 1017.3
20260503222558 75 123 3.5 5.2 0.00 0.64 0.60 100 1017.4
20260503222058 75 95 5.2 7.0 0.00 0.64 0.60 100 1017.3
20260503221558 76 119 4.3 7.8 0.00 0.64 0.60 100 1017.2
20260503221340 76 102 3.5 7.8 0.00 0.64 0.60 100 1017.3
20260503221313 76 132 4.3 7.8 0.00 0.64 0.60 100 1017.3
20260503221103 76 129 5.2 7.0 0.00 0.64 0.60 100 1017.2
20260503221058 76 102 3.5 7.8 0.00 0.64 0.60 100 1017.3
20260503220603 76 104 3.5 9.6 0.00 0.64 0.60 100 1017.2
20260503220558 76 129 5.2 7.0 0.00 0.64 0.60 100 1017.2
20260503220058 76 104 3.5 9.6 0.00 0.64 0.60 100 1017.2
20260503215558 77 59 4.3 4.3 0.00 0.64 0.60 100 1017.2
20260503215058 76 132 4.3 7.8 0.00 0.64 0.60 100 1017.3
20260503214558 76 137 4.3 8.7 0.00 0.64 0.60 100 1017.2
20260503214058 77 67 5.2 7.0 0.00 0.64 0.60 100 1017.2
20260503213558 77 140 3.5 7.0 0.00 0.64 0.60 100 1017.4
20260503213058 76 118 6.1 7.0 0.00 0.64 0.60 100 1017.4
20260503212856 78 101 3.5 6.1 0.00 0.67 0.60 100 1017.3
20260503212558 78 101 3.5 6.1 0.00 0.67 0.60 100 1017.3
20260503212058 78 109 4.3 7.0 0.00 0.67 0.60 100 1017.3
20260503211729 78 77 3.5 7.8 0.00 0.67 0.60 100 1017.3
20260503211651 77 61 3.5 7.8 0.00 0.67 0.60 100 1017.5
20260503211558 78 77 3.5 7.8 0.00 0.67 0.60 100 1017.3
20260503211058 78 94 6.1 7.8 0.00 0.67 0.60 100 1017.4
20260503210652 78 87 2.6 8.7 0.00 0.67 0.60 100 1017.4
20260503210558 78 87 2.6 8.7 0.00 0.67 0.60 100 1017.4
20260503210058 78 78 3.5 7.8 0.00 0.67 0.60 100 1017.3
20260503205805 77 61 3.5 7.8 0.00 0.67 0.60 100 1017.5
20260503205558 77 61 3.5 7.8 0.00 0.67 0.60 100 1017.5
20260503205058 78 61 7.0 9.6 0.00 0.67 0.60 100 1017.6
20260503204558 78 46 4.3 8.7 0.00 0.67 0.60 100 1017.7
20260503204128 77 37 5.2 8.7 0.00 0.67 0.60 100 1017.8
20260503204058 77 42 6.1 10.4 0.00 0.67 0.60 100 1017.8
20260503203558 77 37 5.2 8.7 0.00 0.67 0.60 100 1017.8
20260503203455 77 91 5.2 11.3 0.00 1.34 0.60 100 1018.0
20260503203058 77 56 4.3 8.7 0.00 0.67 0.60 100 1017.8
20260503203014 77 85 5.2 9.6 0.00 1.34 0.60 100 1017.8
20260503202558 77 85 5.2 9.6 0.00 1.34 0.60 100 1017.8
20260503202058 77 68 7.8 9.6 0.00 1.34 0.60 100 1017.9
20260503201558 76 39 7.0 11.3 0.00 1.34 0.60 100 1017.9
20260503201058 78 78 7.0 9.6 0.00 1.34 0.60 100 1017.9
20260503200558 77 95 4.3 9.6 0.00 1.34 0.60 100 1017.9
20260503200058 77 91 5.2 11.3 0.00 1.34 0.60 100 1018.0
20260503200044 78 78 8.7 12.2 0.00 1.34 0.60 100 1018.1
20260503195558 78 78 8.7 12.2 0.00 1.34 0.60 100 1018.1
20260503195430 77 80 0.9 12.2 0.00 1.34 0.60 100 1018.1
20260503195058 77 80 0.9 12.2 0.00 1.34 0.60 100 1018.1
20260503194601 77 74 7.0 9.6 0.00 1.34 0.60 100 1018.2
20260503194558 77 43 10.4 11.3 0.00 1.34 0.60 100 1018.2
20260503194058 77 74 7.0 9.6 0.00 1.34 0.60 100 1018.2
20260503193558 76 56 3.5 10.4 0.00 1.34 0.60 100 1018.1
20260503193316 75 52 9.6 10.4 0.00 1.34 0.60 100 1018.3
20260503193058 75 52 9.6 10.4 0.00 1.34 0.60 100 1018.3
20260503192821 75 49 5.2 12.2 0.00 1.34 0.60 100 1018.4
20260503192651 75 49 5.2 12.2 0.00 1.34 0.60 100 1018.4
20260503192558 75 49 5.2 12.2 0.00 1.34 0.60 100 1018.4
20260503192548 75 74 8.7 10.4 0.00 1.34 0.60 100 1018.4
20260503192059 75 74 8.7 10.4 0.00 1.34 0.60 100 1018.4
20260503191900 75 71 3.5 9.6 0.00 1.34 0.60 100 1018.7
20260503191815 76 147 3.5 11.3 0.00 1.34 0.60 100 1018.5
20260503191559 76 147 3.5 11.3 0.00 1.34 0.60 100 1018.5
20260503191059 75 35 3.5 10.4 0.00 1.34 0.60 100 1018.6
20260503190559 75 71 3.5 9.6 0.00 1.34 0.60 100 1018.7
20260503190059 74 5 3.5 12.2 0.00 1.34 0.60 100 1018.7
20260503185638 74 40 6.1 10.4 0.00 1.34 0.60 100 1019.0
20260503185559 74 26 2.6 11.3 0.00 1.34 0.60 100 1018.8
20260503185059 74 40 6.1 10.4 0.00 1.34 0.60 100 1019.0
20260503184809 75 66 7.8 10.4 0.00 1.34 0.60 100 1019.1
20260503184559 75 66 7.8 10.4 0.00 1.34 0.60 100 1019.1
20260503184059 74 120 5.2 12.2 0.00 1.34 0.60 100 1019.2
20260503184003 74 28 9.6 10.4 0.00 1.34 0.60 100 1019.3
20260503183559 74 28 9.6 10.4 0.00 1.34 0.60 100 1019.3
20260503183433 73 90 7.8 12.2 0.00 1.34 0.60 100 1019.4
20260503183059 73 90 7.8 12.2 0.00 1.34 0.60 100 1019.4
20260503182559 74 49 4.3 10.4 0.00 1.34 0.60 100 1019.4
20260503182212 73 73 6.1 9.6 0.00 1.34 0.60 100 1019.4
20260503182059 73 73 6.1 9.6 0.00 1.34 0.60 100 1019.4
20260503181559 73 66 5.2 10.4 0.00 1.34 0.60 100 1019.4
20260503181059 73 99 4.3 7.8 0.00 1.34 0.60 100 1019.4
20260503180739 72 116 7.0 13.0 0.00 1.34 0.60 100 1019.5
20260503180559 72 116 7.0 13.0 0.00 1.34 0.60 100 1019.5
20260503180059 73 64 10.4 10.4 0.00 1.34 0.60 100 1019.5
20260503175559 72 71 5.2 8.7 0.00 1.34 0.60 100 1019.6
20260503175059 72 49 4.3 9.6 0.00 1.34 0.60 100 1019.6
20260503174825 72 82 0.9 7.0 0.00 1.34 0.60 100 1019.8
20260503174559 72 74 6.1 8.7 0.00 1.34 0.60 100 1019.7
20260503174059 71 81 6.1 11.3 0.00 1.34 0.60 100 1019.8
20260503173631 72 82 0.9 7.0 0.00 1.34 0.60 100 1019.8
20260503173559 72 67 5.2 9.6 0.00 1.34 0.60 100 1019.8
20260503173059 72 82 0.9 7.0 0.00 1.34 0.60 100 1019.8
20260503172940 71 59 4.3 10.4 0.00 1.34 0.60 100 1019.8
20260503172819 71 90 4.3 10.4 0.00 1.34 0.60 100 1019.8
20260503172559 71 59 4.3 10.4 0.00 1.34 0.60 100 1019.8
20260503172525 71 90 4.3 10.4 0.00 1.34 0.60 100 1019.8
20260503172059 71 90 4.3 10.4 0.00 1.34 0.60 100 1019.8
20260503172013 71 78 6.1 9.6 0.00 1.34 0.60 100 1019.8
20260503171835 71 78 6.1 9.6 0.00 1.34 0.60 100 1019.8
20260503171559 71 78 6.1 9.6 0.00 1.34 0.60 100 1019.8
20260503171439 70 42 3.5 9.6 0.00 1.34 0.60 100 1020.0
20260503171059 70 42 3.5 9.6 0.00 1.34 0.60 100 1020.0
20260503170559 70 70 3.5 7.8 0.00 1.34 0.60 100 1020.0
20260503150600 69 78 6.1 13.9 0.00 1.34 0.60 100 1020.1
20260503150514 69 74 4.3 12.2 0.00 1.34 0.60 100 1020.0
20260503131100 67 15 6.1 7.0 0.00 1.34 0.60 100 1019.3
20260503130600 66 39 2.6 7.0 0.00 1.34 0.60 100 1019.2
20260503110601 66 28 1.7 7.0 0.00 1.34 0.60 100 1017.9
20260503100206 66 54 2.6 7.8 0.00 1.34 0.60 100 1017.3
20260503081622 68 49 1.7 10.4 0.09 1.34 0.60 100 1016.3
20260503081601 68 4 6.1 12.2 0.04 1.34 0.60 100 1016.6
20260503081345 68 49 1.7 10.4 0.09 1.34 0.60 100 1016.3
20260503081101 68 49 1.7 10.4 0.09 1.34 0.60 100 1016.3
20260503081025 68 36 6.1 10.4 0.12 1.34 0.60 100 1016.0
20260503080601 68 36 6.1 10.4 0.12 1.34 0.60 100 1016.0
20260503080554 69 16 3.5 10.4 0.19 1.34 0.60 100 1016.0
20260503072602 69 347 5.2 7.8 0.44 1.33 0.59 100 1016.1
20260503072102 69 355 4.3 8.7 0.46 1.33 0.59 100 1016.4
20260503071602 69 345 6.1 10.4 0.45 1.30 0.56 100 1016.4
20260503071514 69 358 2.6 7.0 0.45 1.25 0.51 100 1016.4